"Period start","avg(HW err(1)/warn(2) (#))","avg(Visibility (m))","avg(Weather code (#))","avg(Precip intensity (mm/h))","min(HW err(1)/warn(2) (#))","max(HW err(1)/warn(2) (#))","std(HW err(1)/warn(2) (#))","med(HW err(1)/warn(2) (#))","min(Visibility (m))","max(Visibility (m))","std(Visibility (m))","med(Visibility (m))","min(Weather code (#))","max(Weather code (#))","std(Weather code (#))","med(Weather code (#))","min(Precip intensity (mm/h))","max(Precip intensity (mm/h))","std(Precip intensity (mm/h))","med(Precip intensity (mm/h))"
2013-08-05 00:00:00,2,47884,0,0.00,2,2,0,2,42845,50000,2405,48800,0,0,0,0,0.00,0.00,0.00,0.00
2013-08-05 00:10:00,2,48857,0,0.00,2,2,0,2,43153,50000,2248,50000,0,0,0,0,0.00,0.00,0.00,0.00
2013-08-05 00:20:00,2,49469,0,0.00,2,2,0,2,45945,50000,1233,50000,0,0,0,0,0.00,0.00,0.00,0.00
2013-08-05 00:30:00,2,49102,0,0.00,2,2,0,2,43758,50000,1870,50000,0,0,0,0,0.00,0.00,0.00,0.00
2013-08-05 00:40:00,2,49224,0,0.00,2,2,0,2,44585,50000,1615,50000,0,0,0,0,0.00,0.00,0.00,0.00
2013-08-05 00:50:00,2,49748,0,0.00,2,2,0,2,47485,50000,754,50000,0,0,0,0,0.00,0.00,0.00,0.00
2013-08-05 01:00:00,2,49372,0,0.00,2,2,0,2,46907,50000,981,50000,0,0,0,0,0.00,0.00,0.00,0.00
2013-08-05 01:10:00,2,48857,0,0.00,2,2,0,2,43230,50000,1998,49967,0,0,0,0,0.00,0.00,0.00,0.00
2013-08-05 01:20:00,2,48818,0,0.00,2,2,0,2,43488,50000,1979,50000,0,0,0,0,0.00,0.00,0.00,0.00
2013-08-05 01:30:00,2,50000,0,0.00,2,2,0,2,50000,50000,0,50000,0,0,0,0,0.00,0.00,0.00,0.00
2013-08-05 01:40:00,2,40630,0,0.00,2,2,0,2,23508,50000,10699,45308,0,0,0,0,0.00,0.00,0.00,0.00
2013-08-05 01:50:00,2,47612,0,0.00,2,2,0,2,42346,50000,2343,48138,0,0,0,0,0.00,0.00,0.00,0.00
2013-08-05 02:00:00,2,49981,0,0.00,2,2,0,2,49807,50000,58,50000,0,0,0,0,0.00,0.00,0.00,0.00
2013-08-05 02:10:00,2,46474,0,0.00,2,2,0,2,37233,50000,4547,49074,0,0,0,0,0.00,0.00,0.00,0.00
2013-08-05 02:20:00,2,49583,0,0.00,2,2,0,2,46604,50000,1005,50000,0,0,0,0,0.00,0.00,0.00,0.00
2013-08-05 02:30:00,2,39823,0,0.00,2,2,0,2,20891,50000,10868,44925,0,0,0,0,0.00,0.00,0.00,0.00
2013-08-05 02:40:00,2,43893,0,0.00,2,2,0,2,30792,50000,6451,46076,0,0,0,0,0.00,0.00,0.00,0.00
2013-08-05 02:50:00,2,48745,0,0.00,2,2,0,2,43767,50000,2038,49728,0,0,0,0,0.00,0.00,0.00,0.00
2013-08-05 03:00:00,2,46508,0,0.00,2,2,0,2,34314,50000,4856,48556,0,0,0,0,0.00,0.00,0.00,0.00
2013-08-05 03:10:00,2,47574,0,0.00,2,2,0,2,42350,50000,2797,48703,0,0,0,0,0.00,0.00,0.00,0.00
2013-08-05 03:20:00,2,17140,0,0.00,2,2,0,2,11050,43026,9493,12397,0,0,0,0,0.00,0.00,0.00,0.00
2013-08-05 03:30:00,2,13073,0,0.00,2,2,0,2,6609,28468,6296,10689,0,0,0,0,0.00,0.00,0.00,0.00
2013-08-05 03:40:00,2,43929,0,0.00,2,2,0,2,35197,50000,4988,45542,0,0,0,0,0.00,0.00,0.00,0.00
2013-08-05 03:50:00,2,47849,0,0.00,2,2,0,2,41638,50000,2443,48608,0,0,0,0,0.00,0.00,0.00,0.00
2013-08-05 04:00:00,2,48930,0,0.00,2,2,0,2,45881,50000,1669,50000,0,0,0,0,0.00,0.00,0.00,0.00
2013-08-05 04:10:00,2,48272,0,0.00,0,2,1,2,38475,50000,3547,50000,0,0,0,0,0.00,0.00,0.00,0.00
2013-08-05 04:20:00,2,48590,0,0.00,0,2,1,2,42811,50000,2821,50000,0,0,0,0,0.00,0.00,0.00,0.00
2013-08-05 04:30:00,2,49012,0,0.00,2,2,0,2,42244,50000,2284,50000,0,0,0,0,0.00,0.00,0.00,0.00
2013-08-05 04:40:00,1,49688,0,0.00,0,2,1,0,48623,50000,495,50000,0,0,0,0,0.00,0.00,0.00,0.00
2013-08-05 04:50:00,0,50000,0,0.00,0,0,0,0,50000,50000,0,50000,0,0,0,0,0.00,0.00,0.00,0.00
2013-08-05 05:00:00,1,50000,0,0.00,0,2,1,0,50000,50000,0,50000,0,0,0,0,0.00,0.00,0.00,0.00
2013-08-05 05:10:00,1,49526,0,0.00,0,2,1,2,45262,50000,1421,50000,0,0,0,0,0.00,0.00,0.00,0.00
2013-08-05 05:20:00,0,49896,0,0.00,0,0,0,0,48960,50000,312,50000,0,0,0,0,0.00,0.00,0.00,0.00
2013-08-05 05:30:00,1,49516,0,0.00,0,2,1,0,46696,50000,1016,50000,0,0,0,0,0.00,0.00,0.00,0.00
2013-08-05 05:40:00,1,48164,0,0.00,0,2,1,1,44967,50000,2062,49431,0,0,0,0,0.00,0.00,0.00,0.00
2013-08-05 05:50:00,0,50000,0,0.00,0,0,0,0,50000,50000,0,50000,0,0,0,0,0.00,0.00,0.00,0.00
2013-08-05 06:00:00,0,49275,0,0.00,0,0,0,0,46001,50000,1213,50000,0,0,0,0,0.00,0.00,0.00,0.00
2013-08-05 06:10:00,0,49808,0,0.00,0,0,0,0,48330,50000,498,50000,0,0,0,0,0.00,0.00,0.00,0.00
2013-08-05 06:20:00,0,50000,0,0.00,0,0,0,0,50000,50000,0,50000,0,0,0,0,0.00,0.00,0.00,0.00
2013-08-05 06:30:00,0,49692,0,0.00,0,0,0,0,48056,50000,613,50000,0,0,0,0,0.00,0.00,0.00,0.00
2013-08-05 06:40:00,0,50000,0,0.00,0,0,0,0,50000,50000,0,50000,0,0,0,0,0.00,0.00,0.00,0.00
2013-08-05 06:50:00,0,49643,0,0.00,0,0,0,0,47506,50000,733,50000,0,0,0,0,0.00,0.00,0.00,0.00
2013-08-05 07:00:00,0,49815,0,0.00,0,0,0,0,49047,50000,370,50000,0,0,0,0,0.00,0.00,0.00,0.00
2013-08-05 07:10:00,0,42350,0,0.00,0,0,0,0,18912,50000,11129,48278,0,0,0,0,0.00,0.00,0.00,0.00
2013-08-05 07:20:00,0,48398,0,0.00,0,0,0,0,39319,50000,3419,50000,0,0,0,0,0.00,0.00,0.00,0.00
2013-08-05 07:30:00,0,49879,0,0.00,0,0,0,0,48791,50000,363,50000,0,0,0,0,0.00,0.00,0.00,0.00
2013-08-05 07:40:00,0,49113,0,0.00,0,0,0,0,41710,50000,2474,50000,0,0,0,0,0.00,0.00,0.00,0.00
2013-08-05 07:50:00,0,48374,0,0.00,0,0,0,0,40674,50000,2875,50000,0,0,0,0,0.00,0.00,0.00,0.00
2013-08-05 08:00:00,0,41967,0,0.00,0,0,0,0,3506,50000,14669,50000,0,0,0,0,0.00,0.00,0.00,0.00
2013-08-05 08:10:00,0,48992,0,0.00,0,0,0,0,43491,50000,1877,49581,0,0,0,0,0.00,0.00,0.00,0.00
2013-08-05 08:20:00,0,50000,0,0.00,0,0,0,0,50000,50000,0,50000,0,0,0,0,0.00,0.00,0.00,0.00
2013-08-05 08:30:00,0,49918,0,0.00,0,0,0,0,49185,50000,244,50000,0,0,0,0,0.00,0.00,0.00,0.00
2013-08-05 08:40:00,0,49954,0,0.00,0,0,0,0,49539,50000,138,50000,0,0,0,0,0.00,0.00,0.00,0.00
2013-08-05 08:50:00,0,49213,0,0.00,0,0,0,0,44196,50000,1782,50000,0,0,0,0,0.00,0.00,0.00,0.00
2013-08-05 09:00:00,0,50000,0,0.00,0,0,0,0,50000,50000,0,50000,0,0,0,0,0.00,0.00,0.00,0.00
2013-08-05 09:10:00,0,50000,0,0.00,0,0,0,0,50000,50000,0,50000,0,0,0,0,0.00,0.00,0.00,0.00
2013-08-05 09:20:00,0,50000,0,0.00,0,0,0,0,50000,50000,0,50000,0,0,0,0,0.00,0.00,0.00,0.00
2013-08-05 09:30:00,0,50000,0,0.00,0,0,0,0,50000,50000,0,50000,0,0,0,0,0.00,0.00,0.00,0.00
2013-08-05 09:40:00,0,47628,0,0.00,0,0,0,0,36502,50000,4454,50000,0,0,0,0,0.00,0.00,0.00,0.00
2013-08-05 09:50:00,0,16193,38,0.38,0,0,0,0,4531,50000,16810,7398,0,61,25,51,0.00,1.70,0.49,0.23
2013-08-05 10:00:00,0,5979,46,3.42,0,0,0,0,3311,10422,2418,6046,10,61,18,52,0.00,8.25,3.17,2.88
2013-08-05 10:10:00,0,5696,41,0.41,0,2,1,0,3279,7923,1611,5674,10,61,21,52,0.00,1.80,0.60,0.08
2013-08-05 10:20:00,2,7739,23,0.22,2,2,0,2,5276,10363,1680,7384,10,52,19,10,0.00,1.95,0.58,0.00
2013-08-05 10:30:00,2,6767,46,0.17,0,2,1,2,3974,11149,2691,5593,10,61,14,51,0.00,0.40,0.14,0.15
2013-08-05 10:40:00,2,7126,42,0.11,0,2,1,2,4334,9976,1506,6987,10,61,22,51,0.00,0.30,0.09,0.10
2013-08-05 10:50:00,2,7703,25,0.01,0,2,1,2,3569,12537,3197,7092,10,61,23,10,0.00,0.15,0.05,0.00
2013-08-05 11:00:00,2,10744,33,0.87,0,2,1,2,3563,19059,5883,10742,10,61,23,31,0.00,3.60,1.22,0.00
2013-08-05 11:10:00,1,3258,52,1.71,0,2,1,2,2727,4052,396,3284,52,52,0,52,0.70,2.60,0.61,1.90
2013-08-05 11:20:00,0,3006,52,1.44,0,2,1,0,2290,5530,874,2788,52,52,0,52,0.10,2.40,0.80,1.65
2013-08-05 11:30:00,0,7128,14,0.01,0,0,0,0,4376,8726,1501,7743,10,52,13,10,0.00,0.05,0.02,0.00
2013-08-05 11:40:00,0,4776,45,1.08,0,0,0,0,2584,6936,1192,4916,10,61,18,52,0.00,4.35,1.24,0.62
2013-08-05 11:50:00,0,6949,33,0.56,0,0,0,0,3737,10303,2247,7247,10,61,23,31,0.00,3.05,0.95,0.07
2013-08-05 12:00:00,1,5211,51,0.64,0,2,1,1,2358,8440,2091,5162,51,52,0,51,0.25,1.40,0.34,0.68
2013-08-05 12:10:00,2,6343,27,0.40,0,2,1,2,2488,13008,3187,5574,10,52,20,10,0.00,1.95,0.70,0.00
2013-08-05 12:20:00,2,36451,7,0.00,2,2,0,2,16802,50000,13085,41714,0,10,5,10,0.00,0.00,0.00,0.00
2013-08-05 12:30:00,2,50000,0,0.00,2,2,0,2,50000,50000,0,50000,0,0,0,0,0.00,0.00,0.00,0.00
2013-08-05 12:40:00,2,50000,0,0.00,2,2,0,2,50000,50000,0,50000,0,0,0,0,0.00,0.00,0.00,0.00
2013-08-05 12:50:00,2,49896,0,0.00,2,2,0,2,48957,50000,313,50000,0,0,0,0,0.00,0.00,0.00,0.00
2013-08-05 13:00:00,2,50000,0,0.00,0,2,1,2,50000,50000,0,50000,0,0,0,0,0.00,0.00,0.00,0.00
2013-08-05 13:10:00,1,50000,0,0.00,0,2,1,2,50000,50000,0,50000,0,0,0,0,0.00,0.00,0.00,0.00
2013-08-05 13:20:00,0,37283,0,0.00,0,0,0,0,18263,50000,12143,38723,0,0,0,0,0.00,0.00,0.00,0.00
2013-08-05 13:30:00,0,32500,0,0.00,0,0,0,0,16990,46502,7806,32977,0,0,0,0,0.00,0.00,0.00,0.00
2013-08-05 13:40:00,1,35125,0,0.00,0,2,1,2,26184,40156,4120,35872,0,0,0,0,0.00,0.00,0.00,0.00
2013-08-05 13:50:00,1,25446,0,0.00,0,2,1,2,19745,32926,3912,23988,0,0,0,0,0.00,0.00,0.00,0.00
2013-08-05 14:00:00,2,31980,0,0.00,2,2,0,2,24611,47521,6696,29617,0,0,0,0,0.00,0.00,0.00,0.00
2013-08-05 14:10:00,2,49960,0,0.00,0,2,1,2,49658,50000,102,50000,0,0,0,0,0.00,0.00,0.00,0.00
2013-08-05 14:20:00,2,50000,0,0.00,0,2,1,2,49995,50000,2,50000,0,0,0,0,0.00,0.00,0.00,0.00
2013-08-05 14:30:00,1,49133,0,0.00,0,2,1,2,45388,50000,1738,50000,0,0,0,0,0.00,0.00,0.00,0.00
2013-08-05 14:40:00,2,50000,0,0.00,2,2,0,2,50000,50000,0,50000,0,0,0,0,0.00,0.00,0.00,0.00
2013-08-05 14:50:00,2,50000,0,0.00,2,2,0,2,50000,50000,0,50000,0,0,0,0,0.00,0.00,0.00,0.00
2013-08-05 15:00:00,2,50000,0,0.00,2,2,0,2,50000,50000,0,50000,0,0,0,0,0.00,0.00,0.00,0.00
2013-08-05 15:10:00,2,50000,0,0.00,0,2,1,2,50000,50000,0,50000,0,0,0,0,0.00,0.00,0.00,0.00
2013-08-05 15:20:00,2,49953,0,0.00,0,2,1,2,49531,50000,141,50000,0,0,0,0,0.00,0.00,0.00,0.00
2013-08-05 15:30:00,2,49607,0,0.00,0,2,1,2,46071,50000,1179,50000,0,0,0,0,0.00,0.00,0.00,0.00
2013-08-05 15:40:00,2,50000,0,0.00,0,2,1,2,50000,50000,0,50000,0,0,0,0,0.00,0.00,0.00,0.00
2013-08-05 15:50:00,2,50000,0,0.00,0,2,1,2,50000,50000,0,50000,0,0,0,0,0.00,0.00,0.00,0.00
2013-08-05 16:00:00,2,50000,0,0.00,2,2,0,2,50000,50000,0,50000,0,0,0,0,0.00,0.00,0.00,0.00
2013-08-05 16:10:00,2,49946,0,0.00,2,2,0,2,49463,50000,161,50000,0,0,0,0,0.00,0.00,0.00,0.00
2013-08-05 16:20:00,2,50000,0,0.00,0,2,1,2,50000,50000,0,50000,0,0,0,0,0.00,0.00,0.00,0.00
2013-08-05 16:30:00,2,49925,0,0.00,0,2,1,2,49248,50000,226,50000,0,0,0,0,0.00,0.00,0.00,0.00
2013-08-05 16:40:00,2,49949,0,0.00,0,2,1,2,49491,50000,153,50000,0,0,0,0,0.00,0.00,0.00,0.00
2013-08-05 16:50:00,2,49527,0,0.00,2,2,0,2,47563,50000,947,50000,0,0,0,0,0.00,0.00,0.00,0.00
2013-08-05 17:00:00,2,49892,0,0.00,2,2,0,2,48924,50000,323,50000,0,0,0,0,0.00,0.00,0.00,0.00
2013-08-05 17:10:00,2,40026,0,0.00,2,2,0,2,1878,50000,18679,49716,0,0,0,0,0.00,0.00,0.00,0.00
2013-08-05 17:20:00,2,43552,0,0.00,2,2,0,2,22432,50000,10252,50000,0,0,0,0,0.00,0.00,0.00,0.00
2013-08-05 17:30:00,2,50000,0,0.00,2,2,0,2,50000,50000,0,50000,0,0,0,0,0.00,0.00,0.00,0.00
2013-08-05 17:40:00,2,50000,0,0.00,2,2,0,2,50000,50000,0,50000,0,0,0,0,0.00,0.00,0.00,0.00
2013-08-05 17:50:00,2,50000,0,0.00,2,2,0,2,50000,50000,0,50000,0,0,0,0,0.00,0.00,0.00,0.00
2013-08-05 18:00:00,2,49956,0,0.00,2,2,0,2,49558,50000,133,50000,0,0,0,0,0.00,0.00,0.00,0.00
2013-08-05 18:10:00,2,50000,0,0.00,2,2,0,2,50000,50000,0,50000,0,0,0,0,0.00,0.00,0.00,0.00
2013-08-05 18:20:00,2,50000,0,0.00,2,2,0,2,50000,50000,0,50000,0,0,0,0,0.00,0.00,0.00,0.00
2013-08-05 18:30:00,2,50000,0,0.00,2,2,0,2,50000,50000,0,50000,0,0,0,0,0.00,0.00,0.00,0.00
2013-08-05 18:40:00,2,49970,0,0.00,2,2,0,2,49703,50000,89,50000,0,0,0,0,0.00,0.00,0.00,0.00
2013-08-05 18:50:00,2,50000,0,0.00,2,2,0,2,50000,50000,0,50000,0,0,0,0,0.00,0.00,0.00,0.00
2013-08-05 19:00:00,2,49856,0,0.00,2,2,0,2,48788,50000,359,50000,0,0,0,0,0.00,0.00,0.00,0.00
2013-08-05 19:10:00,2,48996,0,0.00,2,2,0,2,45478,50000,1524,50000,0,0,0,0,0.00,0.00,0.00,0.00
2013-08-05 19:20:00,2,22574,0,0.00,2,2,0,2,7647,50000,14495,16854,0,0,0,0,0.00,0.00,0.00,0.00
2013-08-05 19:30:00,2,19718,0,0.00,2,2,0,2,10228,30268,8251,20255,0,0,0,0,0.00,0.00,0.00,0.00
2013-08-05 19:40:00,2,46198,0,0.00,2,2,0,2,37530,50000,4149,47998,0,0,0,0,0.00,0.00,0.00,0.00
2013-08-05 19:50:00,2,49737,0,0.00,2,2,0,2,47865,50000,641,50000,0,0,0,0,0.00,0.00,0.00,0.00
2013-08-05 20:00:00,2,49907,0,0.00,2,2,0,2,49073,50000,278,50000,0,0,0,0,0.00,0.00,0.00,0.00
2013-08-05 20:10:00,2,49956,0,0.00,2,2,0,2,49562,50000,131,50000,0,0,0,0,0.00,0.00,0.00,0.00
2013-08-05 20:20:00,2,48659,0,0.00,2,2,0,2,44360,50000,2083,49976,0,0,0,0,0.00,0.00,0.00,0.00
2013-08-05 20:30:00,2,49362,0,0.00,2,2,0,2,45153,50000,1476,50000,0,0,0,0,0.00,0.00,0.00,0.00
2013-08-05 20:40:00,2,49293,0,0.00,2,2,0,2,47724,50000,862,49853,0,0,0,0,0.00,0.00,0.00,0.00
2013-08-05 20:50:00,2,48469,0,0.00,2,2,0,2,41633,50000,2742,50000,0,0,0,0,0.00,0.00,0.00,0.00
2013-08-05 21:00:00,2,49584,0,0.00,2,2,0,2,45836,50000,1249,50000,0,0,0,0,0.00,0.00,0.00,0.00
2013-08-05 21:10:00,2,48181,0,0.00,2,2,0,2,41224,50000,3061,50000,0,0,0,0,0.00,0.00,0.00,0.00
2013-08-05 21:20:00,2,46422,0,0.00,2,2,0,2,38246,50000,4450,48934,0,0,0,0,0.00,0.00,0.00,0.00
2013-08-05 21:30:00,2,48486,0,0.00,2,2,0,2,42958,50000,2446,50000,0,0,0,0,0.00,0.00,0.00,0.00
2013-08-05 21:40:00,2,48748,0,0.00,2,2,0,2,43150,50000,2098,50000,0,0,0,0,0.00,0.00,0.00,0.00
2013-08-05 21:50:00,2,47402,0,0.00,2,2,0,2,39053,50000,3446,48793,0,0,0,0,0.00,0.00,0.00,0.00
2013-08-05 22:00:00,2,49097,0,0.00,2,2,0,2,43356,50000,1998,50000,0,0,0,0,0.00,0.00,0.00,0.00
2013-08-05 22:10:00,2,47354,0,0.00,2,2,0,2,36191,50000,4116,49171,0,0,0,0,0.00,0.00,0.00,0.00
2013-08-05 22:20:00,2,47419,0,0.00,2,2,0,2,40834,50000,3325,49138,0,0,0,0,0.00,0.00,0.00,0.00
2013-08-05 22:30:00,2,46492,0,0.00,2,2,0,2,39083,50000,4116,48460,0,0,0,0,0.00,0.00,0.00,0.00
2013-08-05 22:40:00,2,46508,0,0.00,2,2,0,2,41322,50000,3186,47157,0,0,0,0,0.00,0.00,0.00,0.00
2013-08-05 22:50:00,2,48243,0,0.00,2,2,0,2,42028,50000,2726,49730,0,0,0,0,0.00,0.00,0.00,0.00
2013-08-05 23:00:00,2,45208,0,0.00,2,2,0,2,32092,50000,5109,46066,0,0,0,0,0.00,0.00,0.00,0.00
2013-08-05 23:10:00,2,47446,0,0.00,2,2,0,2,43890,50000,2421,47341,0,0,0,0,0.00,0.00,0.00,0.00
2013-08-05 23:20:00,2,48533,0,0.00,2,2,0,2,45583,50000,1701,49190,0,0,0,0,0.00,0.00,0.00,0.00
2013-08-05 23:30:00,2,46960,0,0.00,2,2,0,2,31801,50000,5559,50000,0,0,0,0,0.00,0.00,0.00,0.00
2013-08-05 23:40:00,2,47984,0,0.00,2,2,0,2,39542,50000,3235,49875,0,0,0,0,0.00,0.00,0.00,0.00
2013-08-05 23:50:00,2,47596,0,0.00,2,2,0,2,39724,50000,3282,49172,0,0,0,0,0.00,0.00,0.00,0.00
